SL-14 DEB, 45288

Orbit data source: Space-Track

SL-14 DEB, 45288 is space debris in LEO originally from a launch on Thu, 15 Aug 1991 UTC launched from the Plesetsk Missile And Space Complex (PKMTR). Debris objects in space refer to the collection of defunct objects orbiting the Earth. Examples of debris include non-operational satellites, rocket bodies, and fragments generated from explosions, collisions, or faulty payload assembly.

Loading next visibility...
Identifier
45288, 1991-056AA
Orbit
LEO
Country
Flag of CISCIS
Related business
Manufacturer
Unknown
Mission
Spacecraft
Bus & Motor
Unknown
Mass
Unknown
Launch date (UTC)
1991-08-15 (34 years ago)
Launch vehicle
Unknown
Launch site
Plesetsk Missile And Space Complex (PKMTR)
Object type
Payload
Rocket body
Debris
Shape & HBR
Unknown shape, 0.1 m
Radar Cross Section
Small (<0.1 m²)

Expand to show TLE details & history
Last TLE update: 11 hours ago

TLE from 11 hours ago
0 SL-14 DEB
1 45288U 91056AA  26035.53759873  .00001995  00000-0  70574-2 0  9990
2 45288  82.6250 337.7174 0197555 183.7082 176.2573 12.89090537279244
Epoch: 2026-02-04T12:54Z
TLE epoch observation values (Epoch: 2026-02-04T12:54:08.530Z)
Latitude
-0.00003°
Longitude
9.4791°
Altitude
1,459.409 km
Speed
7.062 km/s
True Right ascension
22h 30m 52s
True Declination
0° 00' 00"
Sunlit
Object was in daylight at epoch
Visualization orbit readout
Latitude
Unknown
Longitude
Unknown
Altitude
Unknown
Speed
Unknown
Apparent Right ascension
Unknown
Apparent Declination
Unknown
Sunlit
N/A
Visualization observer readout
Local Sidereal Time
02:17:16
Azimuth
Unknown
Elevation
Unknown
Doppler factor
Unknown
Orbital elements
Apogee altitude
1,454.148 km
Perigee altitude
1,150.682 km
Semi-major axis
7,680.552 km
Eccentricity
0.01976
Inclination
82.625°
RAAN
337.7174°
Arg. of periapsis
183.7082°
True anomaly
176.40152°
Mean anomaly
176.2573°
Eccentric anomaly
176.32976°
Mean motion
3.22444 °/min
Orbital period
111.65 mins
BSTAR
0.0070574
Loading maneuver chart data...
Computing Atmospheric mass density...
Loading historical data...
Loading historical data...
Loading historical data...
Loading historical data...
Loading historical data...
Loading historical data...
Loading historical data...

Documentation

Showing up to 5 results
|